Weather History for LHBP - November, 2012

Change the Weather History Date:

Monday, November 5, 2012

  Actual Average Record
Temperature  
Mean Temperature 52 °F -  
Max Temperature 59 °F 44 °F 68 °F (2014)
Min Temperature 44 °F 31 °F 24 °F (2001)
Degree Days  
Heating Degree Days 14    
Growing Degree Days 2 (Base 50)    
Moisture  
Dew Point 47 °F    
Average Humidity 82    
Maximum Humidity 94    
Minimum Humidity 71    
Precipitation  
Precipitation 0.00 in - - ()
Sea Level Pressure  
Sea Level Pressure 29.57 in    
Wind  
Wind Speed 12 mph ()    
Max Wind Speed 22 mph    
Max Gust Speed -    
Visibility 5.9 miles    
Events Rain    
Averages and records for this station are not official NWS values.
T = Trace of Precipitation, MM = Missing Value Source: Averaged Metar Reports

Daily Weather History Graph

Daily Weather History Graph

Search for Another Location

Airport or City:

Trip Planner

Search our weather history database for the weather conditions in past years. The results will help you decide how hot, cold, wet, or windy it might be!

Date:

Astronomy

Nov. 05, 2012 Rise Set
Actual Time 6:32 AM CET 4:19 PM CET
Civil Twilight 6:00 AM CET 4:52 PM CET
Nautical Twilight 5:23 AM CET 5:28 PM CET
Astronomical Twilight 4:48 AM CET 6:04 PM CET
Moon 9:38 PM CET (11/5) 11:44 AM CET (11/5)
Length of Visible Light 10h 51m
Length of Day
9h 46m
Waning Gibbous, 65% of the Moon is Illuminated
Nov 5
Waning Gibbous
Nov 7
Last Quarter
Nov 13
New
Nov 20
First Quarter
Nov 28
Full

Hourly Weather History & Observations

Time (CET) Temp. Windchill Dew Point Humidity Pressure Visibility Wind Dir Wind Speed Gust Speed Precip Events Conditions
12:00 AM 55.4 °F - 48.2 °F 77% 29.68 in - SE 8.1 mph - N/A   Clear
12:30 AM 57.2 °F - 48.2 °F 72% 29.68 in - SE 9.2 mph - N/A   Clear
1:00 AM 57.2 °F - 50.0 °F 77% 29.65 in - SE 9.2 mph - N/A   Clear
1:30 AM 57.2 °F - 50.0 °F 77% 29.65 in - ESE 8.1 mph - N/A   Clear
2:00 AM 57.2 °F - 50.0 °F 77% 29.65 in - ESE 9.2 mph - N/A   Clear
2:30 AM 57.2 °F - 50.0 °F 77% 29.62 in - ESE 10.4 mph - N/A   Clear
3:00 AM 57.2 °F - 50.0 °F 77% 29.59 in - ESE 10.4 mph - N/A   Clear
3:30 AM 57.2 °F - 50.0 °F 77% 29.56 in - ESE 9.2 mph - N/A   Clear
4:00 AM 57.2 °F - 50.0 °F 77% 29.56 in - ESE 9.2 mph - N/A   Clear
4:30 AM 57.2 °F - 50.0 °F 77% 29.56 in - ESE 9.2 mph - N/A   Clear
5:00 AM 59.0 °F - 50.0 °F 72% 29.53 in 6.2 mi SE 12.7 mph - N/A   Mostly Cloudy
5:30 AM 57.2 °F - 51.8 °F 82% 29.53 in 5.0 mi SSE 12.7 mph - N/A Rain Light Rain Showers
6:00 AM 57.2 °F - 53.6 °F 88% 29.50 in 5.0 mi SE 12.7 mph - N/A Rain Light Rain Showers
6:30 AM 57.2 °F - 53.6 °F 88% 29.47 in 6.2 mi SE 12.7 mph - N/A   Mostly Cloudy
7:00 AM 57.2 °F - 53.6 °F 88% 29.47 in 6.2 mi SSE 12.7 mph - N/A Rain Light Rain Showers
7:30 AM 57.2 °F - 53.6 °F 88% 29.44 in 6.2 mi SE 12.7 mph - N/A Rain Light Rain Showers
8:00 AM 59.0 °F - 55.4 °F 88% 29.44 in 3.7 mi SSE 13.8 mph - N/A Rain Light Rain
8:30 AM 57.2 °F - 55.4 °F 94% 29.47 in 3.1 mi WSW 11.5 mph - N/A Rain Rain
9:00 AM 57.2 °F - 55.4 °F 94% 29.47 in 6.2 mi SW 10.4 mph - N/A   Mostly Cloudy
9:30 AM 53.6 °F - 51.8 °F 94% 29.47 in 6.2 mi West 11.5 mph - N/A Rain Light Rain Showers
10:00 AM 51.8 °F - 48.2 °F 88% 29.50 in 6.2 mi WNW 17.3 mph - N/A   Mostly Cloudy
10:30 AM 50.0 °F - 48.2 °F 94% 29.50 in 6.2 mi WNW 16.1 mph - N/A   Mostly Cloudy
11:00 AM 50.0 °F - 46.4 °F 87% 29.50 in 6.2 mi WNW 20.7 mph - N/A Rain Light Rain Showers
11:30 AM 48.2 °F - 46.4 °F 93% 29.50 in 6.2 mi WNW 18.4 mph - N/A Rain Light Rain Showers
12:00 PM 48.2 °F - 46.4 °F 93% 29.50 in 6.2 mi WNW 21.9 mph - N/A Rain Light Rain
12:30 PM 48.2 °F - 46.4 °F 93% 29.53 in 6.2 mi WNW 20.7 mph - N/A Rain Light Rain
1:00 PM 48.2 °F - 46.4 °F 93% 29.53 in 6.2 mi WNW 17.3 mph - N/A   Mostly Cloudy
1:30 PM 50.0 °F - 46.4 °F 87% 29.53 in 6.2 mi WNW 16.1 mph - N/A   Mostly Cloudy
2:00 PM 50.0 °F - 44.6 °F 82% 29.53 in 6.2 mi WNW 13.8 mph - N/A   Mostly Cloudy
2:30 PM 50.0 °F - 44.6 °F 82% 29.53 in 6.2 mi West 16.1 mph - N/A   Mostly Cloudy
3:00 PM 50.0 °F - 44.6 °F 82% 29.53 in 6.2 mi WNW 18.4 mph - N/A   Overcast
3:30 PM 50.0 °F - 42.8 °F 76% 29.53 in 6.2 mi WNW 13.8 mph - N/A   Mostly Cloudy
4:00 PM 50.0 °F - 42.8 °F 76% 29.53 in 6.2 mi WNW 13.8 mph - N/A   Mostly Cloudy
4:30 PM 50.0 °F - 42.8 °F 76% 29.56 in 6.2 mi WNW 15.0 mph - N/A   Mostly Cloudy
5:00 PM 50.0 °F - 41.0 °F 71% 29.56 in 6.2 mi WNW 17.3 mph - N/A   Mostly Cloudy
5:30 PM 50.0 °F - 41.0 °F 71% 29.59 in - WNW 17.3 mph - N/A   Clear
6:00 PM 48.2 °F - 41.0 °F 76% 29.59 in - WNW 12.7 mph - N/A   Clear
6:30 PM 48.2 °F - 42.8 °F 82% 29.62 in - West 17.3 mph - N/A   Clear
7:00 PM 48.2 °F - 42.8 °F 82% 29.62 in - West 16.1 mph - N/A   Clear
7:30 PM 48.2 °F - 41.0 °F 76% 29.62 in - WNW 20.7 mph - N/A   Clear
8:00 PM 46.4 °F 39.0 °F 41.0 °F 81% 29.65 in - WNW 19.6 mph - N/A   Clear
8:30 PM 46.4 °F 39.8 °F 39.2 °F 76% 29.68 in - West 16.1 mph - N/A   Clear
9:00 PM 44.6 °F 38.4 °F 39.2 °F 81% 29.68 in - West 12.7 mph - N/A   Clear
9:30 PM 44.6 °F 38.4 °F 39.2 °F 81% 29.71 in - West 12.7 mph - N/A   Clear
10:00 PM 44.6 °F 38.8 °F 39.2 °F 81% 29.71 in - West 11.5 mph - N/A   Clear
10:30 PM 44.6 °F 40.2 °F 39.2 °F 81% 29.74 in - West 8.1 mph - N/A   Clear
11:00 PM 46.4 °F 40.1 °F 39.2 °F 76% 29.77 in - West 15.0 mph - N/A   Clear
11:30 PM 44.6 °F 37.4 °F 39.2 °F 81% 29.77 in - West 16.1 mph - N/A   Clear